Regional Weather Roundup
Issued by NWS Charleston, WV

Home | Current Version | Previous Version | Graphics & Text | Print | Product List | Glossary On
Versions: 1 2 3 4 5 6 7 8 9 10 11 12 13 14 15 16 17 18 19 20 21 22 23 24 25 26 27 28 29 30 31 32 33 34 35 36 37 38 39 40 41 42 43 44 45 46 47 48 49 50
000
ASUS41 KRLX 020010
RWRRLX
West Virginia Regional Weather Roundup
National Weather Service Charleston WV
800 PM EDT WED APR 01 2015

Note: "fair" indicates few or no clouds below 12,000 feet with no
significant weather and/or obstructions to visibility.

WVZ003-020100-
Northern Panhandle of West Virginia

CITY           SKY/WX    TMP DP  RH WIND       PRES   REMARKS
WHEELING       CLEAR     54  26  34 S6        30.11S
$$

WVZ009-020100-
Northwest West Virginia

CITY           SKY/WX    TMP DP  RH WIND       PRES   REMARKS
PARKERSBURG    CLEAR     58  24  27 CALM      30.15S
$$

WVZ006-020100-
Western West Virginia

CITY           SKY/WX    TMP DP  RH WIND       PRES   REMARKS
HUNTINGTON     CLEAR     60  20  21 CALM      30.10F
$$

WVZ015-020100-
West Central West Virginia

CITY           SKY/WX    TMP DP  RH WIND       PRES   REMARKS
CHARLESTON     CLEAR     61  18  18 CALM      30.13R
$$

WVZ022-031-020100-
North Central West Virginia

CITY           SKY/WX    TMP DP  RH WIND       PRES   REMARKS
CLARKSBURG     CLEAR     54  23  30 CALM      30.13S
MORGANTOWN     CLEAR     56  19  23 CALM      30.13S
$$

WVZ025-035-042-045-020100-
Southern West Virginia

CITY           SKY/WX    TMP DP  RH WIND       PRES   REMARKS
BECKLEY        CLEAR     56  13  18 NE3       30.15R
LOGAN            N/A     59  12  15 CALM      30.09S
BLUEFIELD      CLEAR     59  12  15 CALM      30.15R
LEWISBURG      CLEAR     57  15  19 CALM      30.15R
$$

WVZ047-020100-
Northern Mountains of West Virginia

CITY           SKY/WX    TMP DP  RH WIND       PRES   REMARKS
ELKINS         CLEAR     46  23  40 CALM      30.15S
$$

WVZ052-020100-
Eastern Panhandle of West Virginia

CITY           SKY/WX    TMP DP  RH WIND       PRES   REMARKS
MARTINSBURG    CLEAR     55  24  30 VRB5      30.16R
PETERSBURG     CLEAR     51  25  36 NW5       30.16R
$$



USA.gov is the U.S. government's official web portal to all federal, state and local government web resources and services.